Weather History for Cortez, CO

Change the Weather History Date:

Thursday, September 5, 2013

  Actual Average Record
Temperature  
Mean Temperature 75 °F 64 °F  
Max Temperature 90 °F 81 °F 90 °F (2002)
Min Temperature 59 °F 47 °F 34 °F (2004)
Degree Days  
Heating Degree Days 0 2  
Month to date heating degree days 0 9  
Since 1 July heating degree days 0 21  
Cooling Degree Days 10 1  
Month to date cooling degree days 39 8  
Year to date cooling degree days 644 417  
Growing Degree Days 26 (Base 50)    
Moisture  
Dew Point 45 °F    
Average Humidity 39    
Maximum Humidity 61    
Minimum Humidity 16    
Precipitation  
Precipitation 0.00 in 0.05 in 0.03 in (2000)
Month to date precipitation 0.01 0.24  
Year to date precipitation 8.13 8.68  
Sea Level Pressure  
Sea Level Pressure 30.03 in    
Wind  
Wind Speed 5 mph (SSW)    
Max Wind Speed 17 mph    
Max Gust Speed 21 mph    
Visibility 10 miles    
Events Thunderstorm    
T = Trace of Precipitation, MM = Missing Value Source: NWS Daily Summary

Daily Weather History Graph

Daily Weather History Graph

Search for Another Location

Airport:

Trip Planner

Search our weather history database for the weather conditions in past years. The results will help you decide how hot, cold, wet, or windy it might be!

Date:

Astronomy

Sep. 05, 2013 Rise Set
Actual Time 6:48 AM MDT 7:36 PM MDT
Civil Twilight 6:22 AM MDT 8:03 PM MDT
Nautical Twilight 5:50 AM MDT 8:34 PM MDT
Astronomical Twilight 5:18 AM MDT 9:06 PM MDT
Moon 7:01 AM MDT (9/5) 7:32 PM MDT (9/5)
Length of Visible Light 13h 41m
Length of Day
12h 48m
New Moon, 0% of the Moon is Illuminated
Sep 5
New Moon
Sep 12
First Quarter
Sep 19
Full
Sep 26
Last Quarter
Oct 4
New

Hourly Weather History & Observations

Time (MDT) Temp. Dew Point Humidity Pressure Visibility Wind Dir Wind Speed Gust Speed Precip Events Conditions
12:35 AM 71.6 °F 55.4 °F 57% 30.27 in 10.0 mi Calm Calm - N/A Thunderstorm Mostly Cloudy
12:50 AM 69.8 °F 55.4 °F 60% 30.28 in 10.0 mi Calm Calm - 0.00 in   Overcast
12:53 AM 70.0 °F 55.9 °F 61% 30.00 in 10.0 mi Calm Calm - 0.00 in   Overcast
1:53 AM 73.0 °F 50.0 °F 44% 30.00 in 10.0 mi ENE 4.6 mph - N/A   Overcast
2:53 AM 70.0 °F 52.0 °F 53% 30.00 in 10.0 mi NNE 3.5 mph - N/A   Overcast
3:53 AM 68.0 °F 50.0 °F 52% 30.01 in 10.0 mi ESE 6.9 mph - N/A   Overcast
4:53 AM 71.1 °F 46.0 °F 41% 30.01 in 10.0 mi NNE 4.6 mph - N/A   Mostly Cloudy
5:53 AM 69.1 °F 45.0 °F 42% 30.02 in 10.0 mi Calm Calm - N/A   Clear
6:53 AM 63.0 °F 46.0 °F 54% 30.05 in 10.0 mi Calm Calm - N/A   Clear
7:53 AM 66.9 °F 48.0 °F 51% 30.08 in 10.0 mi Calm Calm - N/A   Clear
8:53 AM 72.0 °F 46.0 °F 40% 30.09 in 10.0 mi Calm Calm - N/A   Clear
9:53 AM 78.1 °F 44.1 °F 30% 30.08 in 10.0 mi West 4.6 mph - N/A   Clear
10:53 AM 82.0 °F 41.0 °F 23% 30.07 in 10.0 mi Variable 5.8 mph - N/A   Clear
11:53 AM 86.0 °F 41.0 °F 20% 30.05 in 10.0 mi South 10.4 mph 20.7 mph N/A   Clear
12:53 PM 86.0 °F 41.0 °F 20% 30.03 in 9.0 mi Variable 4.6 mph - N/A   Clear
1:53 PM 88.0 °F 39.0 °F 18% 30.00 in 10.0 mi SW 10.4 mph 20.7 mph N/A   Clear
2:53 PM 89.1 °F 37.9 °F 16% 29.97 in 10.0 mi SW 10.4 mph 17.3 mph N/A   Clear
3:53 PM 88.0 °F 39.0 °F 18% 29.97 in 10.0 mi SW 16.1 mph 20.7 mph N/A   Clear
4:53 PM 89.1 °F 37.9 °F 16% 29.93 in 10.0 mi WSW 8.1 mph - N/A   Clear
5:53 PM 88.0 °F 39.0 °F 18% 29.93 in 10.0 mi SW 11.5 mph - N/A   Clear
6:53 PM 84.9 °F 41.0 °F 21% 29.95 in 10.0 mi SSW 8.1 mph - N/A   Clear
7:53 PM 75.9 °F 39.9 °F 27% 29.97 in 10.0 mi SSE 5.8 mph - N/A   Clear
8:53 PM 71.1 °F 42.1 °F 35% 29.99 in 10.0 mi Variable 3.5 mph - N/A   Partly Cloudy
9:53 PM 70.0 °F 45.0 °F 41% 30.01 in 10.0 mi ENE 4.6 mph - N/A   Mostly Cloudy
10:53 PM 66.9 °F 46.9 °F 49% 30.00 in 10.0 mi Calm Calm - N/A   Scattered Clouds
11:53 PM 63.0 °F 48.0 °F 58% 30.01 in 10.0 mi Calm Calm - N/A   Partly Cloudy